Regional Weather Roundup
Issued by NWS Green Bay, WI

Home | Current Version | Previous Version | Text Only | Print | Product List | Glossary On
Versions: 1 2 3 4 5 6 7 8 9 10 11 12 13 14 15 16 17 18 19 20 21 22 23 24 25 26 27 28 29 30 31 32 33 34 35 36 37 38 39 40 41 42 43 44 45 46 47 48 49 50
000
ASUS43 KGRB 290511
RWRGRB

NORTH-CENTRAL AND NORTHEAST WISCONSIN REGIONAL WEATHER ROUNDUP
NATIONAL WEATHER SERVICE GREEN BAY WI
1200 AM CDT MON MAY 29 2017

WIZ005-009-010>012-018-019-290600-
NORTH CENTRAL WISCONSIN

CITY           SKY/WX    TMP DP  RH WIND       PRES   REMARKS
IRONWOOD       CLOUDY    53  50  89 SW6       29.63S
MANITOWISH WTR PTCLDY    50  50 100 SW7       29.64S
ARBOR VITAE    CLEAR     52  50  94 SW3       29.64F
EAGLE RIVER    MOCLDY    51  49  93 CALM      29.64F
LAND O LAKES   CLOUDY    50  50 100 CALM      29.66S
RHINELANDER    CLEAR     48  45  89 SW5       29.67F
PHILLIPS       MOCLDY    50  49  95 SW7       29.66S
ANTIGO         CLEAR     49  47  92 SW7       29.68F
TOMAHAWK       CLEAR     49  46  87 CALM      29.68R
MERRILL        CLEAR     50  47  90 W5        29.69S
$$

WIZ013-073-290600-
NORTHEAST WISCONSIN

CITY           SKY/WX    TMP DP  RH WIND       PRES   REMARKS
IRON MOUNTAIN  CLEAR     52  50  93 CALM      29.63F FOG
MARINETTE      NOT AVBL
OCONTO         CLOUDY    54  52  94 CALM      29.65F
$$

WIZ017-030-035>037-045-290600-
CENTRAL WISCONSIN

CITY           SKY/WX    TMP DP  RH WIND       PRES   REMARKS
MEDFORD        PTCLDY    51  47  88 W5        29.69S
WAUSAU         CLEAR     53  48  83 W9        29.68S
MOSINEE        CLEAR     50  50 100 SW6       29.71S
MARSHFIELD     PTCLDY    51  47  86 W3        29.70S
WISC RAPIDS    CLEAR     50  46  86 CALM      29.72S
STEVENS POINT  CLEAR     53  47  81 SW5       29.71S
WAUPACA        CLEAR     58  49  72 CALM      29.71S
SHAWANO        PTCLDY    59  48  67 SW3       29.68F
CLINTONVILLE   CLEAR     55  45  67 W3        29.69S
WAUTOMA        CLEAR     54  50  86 CALM      29.72F
$$

WIZ038-039-048-051-290600-
FOX VALLEY

CITY           SKY/WX    TMP DP  RH WIND       PRES   REMARKS
NWS GREEN BAY  CLOUDY    61  49  64 SW5       29.68F
APPLETON       PTCLDY    54  43  66 W5        29.68F
OSHKOSH        CLEAR     59  47  64 W3        29.70S
FOND DU LAC    CLEAR     58  45  62 W7        29.71S
$$

WIZ022-050-052-290600-
EAST CENTRAL WISCONSIN

CITY           SKY/WX    TMP DP  RH WIND       PRES   REMARKS
EPHRAIM        MOCLDY   N/A N/A N/A CALM      29.64F
WASHINGTON ISL FOG       47  47  99 CALM      29.64F VSB 1/4
STURGEON BAY   CLEAR     55  53  93 SW7       29.66F
MANITOWOC      PTCLDY    59  49  69 W7        29.69F
SHEBOYGAN      CLEAR     56  51  84 SW5       29.69F
$$

LMZ563-521-522-541>543-290600-
LAKESHORE

STATION/POSITION TIME  TEMP    WIND        PRES    VSBY  WAVE
                       AIR SEA DIR/SP/G                  HT/PER
                 (UTC) (F)     (DEG/KT/KT) (MB)    (MI)  (FT/S)
SHEBOYGAN LKSHOR 0500   62     240/  9/ 10 1005.0F
KEWAUNEE LKSHORE 0442   57     240/  1/  2 1004.6F
ALGOMA MARINA    0416             CALM       N/A
NORTHPORT PIER   0440   49     220/  5/  8 1003.7F
N MID LAKE BUOY  0450   45 41  180/  6/  6 1004.7F         1
SISTER BAY LKSHO 0406   50     150/  6/  8   N/A
CHAMBERS ISLAND  0440   53     210/  4/  5 1003.7F
MENOMINEE LKSHOR 0436          230/  4/  5 1003.3F
$$




USA.gov is the U.S. government's official web portal to all federal, state and local government web resources and services.